Weather History for Miles City, MT

Change the Weather History Date:

Wednesday, November 30, 2011

  Actual Average Record
Temperature  
Mean Temperature 34 °F 25 °F  
Max Temperature 42 °F 35 °F 61 °F (1939)
Min Temperature 25 °F 14 °F -12 °F (1975)
Degree Days  
Heating Degree Days 31 40  
Month to date heating degree days 1001 986  
Since 1 July heating degree days 1544 1799  
Cooling Degree Days 0 0  
Month to date cooling degree days 0 0  
Year to date cooling degree days 763 730  
Moisture  
Dew Point 29 °F    
Average Humidity 83    
Maximum Humidity 96    
Minimum Humidity 70    
Precipitation  
Precipitation 0.01 in 0.01 in 0.20 in (1966)
Month to date precipitation 0.22 0.39  
Year to date precipitation 18.65 12.15  
Sea Level Pressure  
Sea Level Pressure 30.16 in    
Wind  
Wind Speed 9 mph (North)    
Max Wind Speed 26 mph    
Max Gust Speed 35 mph    
Visibility 7 miles    
Events Rain , Snow    
T = Trace of Precipitation, MM = Missing Value Source: NWS Daily Summary

Daily Weather History Graph

Daily Weather History Graph

Search for Another Location

Airport:

Trip Planner

Search our weather history database for the weather conditions in past years. The results will help you decide how hot, cold, wet, or windy it might be!

Date:

Astronomy

Nov. 30, 2011 Rise Set
Actual Time 7:25 AM MST 4:19 PM MST
Civil Twilight 6:50 AM MST 4:53 PM MST
Nautical Twilight 6:13 AM MST 5:30 PM MST
Astronomical Twilight 5:37 AM MST 6:06 PM MST
Moon 11:33 AM MST (11/30) 10:31 PM MST (11/30)
Length of Visible Light 10h 02m
Length of Day
8h 54m
Waxing Crescent, 34% of the Moon is Illuminated
Nov 30
Waxing Crescent
Dec 2
First Quarter
Dec 10
Full
Dec 17
Last Quarter
Dec 24
New

Hourly Weather History & Observations

Time (MST) Temp. Windchill Dew Point Humidity Pressure Visibility Wind Dir Wind Speed Gust Speed Precip Events Conditions
12:53 AM 32.0 °F 27.5 °F 27.0 °F 82% 29.94 in 10.0 mi SE 4.6 mph - N/A   Partly Cloudy
1:53 AM 30.9 °F 26.2 °F 27.0 °F 85% 29.94 in 10.0 mi NNW 4.6 mph - N/A   Mostly Cloudy
2:53 AM 32.0 °F - 27.0 °F 82% 29.92 in 10.0 mi Calm Calm - N/A   Overcast
3:53 AM 30.9 °F - 28.0 °F 89% 29.91 in 10.0 mi Calm Calm - N/A   Overcast
4:53 AM 30.0 °F - 27.0 °F 88% 29.91 in 10.0 mi Calm Calm - N/A   Overcast
5:53 AM 32.0 °F 28.7 °F 28.0 °F 85% 29.89 in 10.0 mi SSW 3.5 mph - N/A   Overcast
6:53 AM 33.1 °F 30.0 °F 28.0 °F 82% 29.88 in 10.0 mi East 3.5 mph - N/A   Overcast
7:53 AM 33.1 °F 30.0 °F 28.0 °F 82% 29.88 in 10.0 mi SSE 3.5 mph - N/A   Overcast
8:53 AM 33.1 °F 27.7 °F 28.9 °F 85% 29.90 in 10.0 mi WNW 5.8 mph - 0.00 in Rain Light Rain
9:53 AM 35.1 °F 32.2 °F 30.9 °F 85% 29.91 in 10.0 mi WNW 3.5 mph - 0.00 in Rain Light Rain
10:53 AM 37.0 °F 31.0 °F 30.9 °F 79% 29.92 in 10.0 mi WSW 8.1 mph - N/A   Unknown
11:53 AM 37.0 °F 32.4 °F 32.0 °F 82% 29.92 in 10.0 mi West 5.8 mph - 0.00 in   Overcast
12:53 PM 41.0 °F 34.7 °F 32.0 °F 70% 29.94 in 10.0 mi NW 10.4 mph - N/A   Overcast
1:28 PM 41.0 °F 34.7 °F 32.0 °F 70% 29.90 in 10.0 mi NNW 10.4 mph - N/A   Overcast
1:53 PM 42.1 °F 36.6 °F 33.1 °F 70% 29.97 in 10.0 mi NNW 9.2 mph - N/A   Overcast
2:21 PM 41.0 °F 34.3 °F 33.8 °F 76% 29.93 in 10.0 mi NNW 11.5 mph - N/A   Overcast
2:42 PM 39.2 °F 31.2 °F 35.6 °F 87% 29.94 in 8.0 mi NNW 13.8 mph - 0.00 in Rain Light Rain
2:53 PM 39.9 °F 32.9 °F 35.1 °F 83% 30.01 in 10.0 mi NNW 11.5 mph - 0.00 in   Overcast
3:33 PM 39.2 °F 30.8 °F 33.8 °F 81% 29.99 in 10.0 mi NNW 15.0 mph 23.0 mph N/A   Overcast
3:46 PM 39.2 °F 31.2 °F 33.8 °F 81% 30.00 in 10.0 mi NNW 13.8 mph - N/A   Overcast
3:53 PM 39.0 °F 30.6 °F 34.0 °F 82% 30.06 in 10.0 mi NNW 15.0 mph - N/A   Overcast
3:59 PM 39.2 °F 30.2 °F 33.8 °F 81% 30.01 in 10.0 mi NNW 17.3 mph - N/A   Overcast
4:30 PM 37.4 °F 28.9 °F 33.8 °F 87% 30.04 in 10.0 mi NW 13.8 mph - N/A   Overcast
4:44 PM 37.4 °F 29.8 °F 33.8 °F 87% 30.05 in 10.0 mi NW 11.5 mph - N/A   Overcast
4:53 PM 37.0 °F 28.9 °F 33.1 °F 86% 30.12 in 10.0 mi NW 12.7 mph - N/A   Overcast
5:04 PM 35.6 °F 28.0 °F 33.8 °F 93% 30.06 in 10.0 mi NNW 10.4 mph - N/A   Overcast
5:36 PM 35.6 °F 27.1 °F 32.0 °F 87% 30.10 in 10.0 mi North 12.7 mph - 0.00 in Rain Light Rain
5:43 PM 33.8 °F 23.9 °F 32.0 °F 93% 30.11 in 10.0 mi NNE 15.0 mph - 0.00 in Rain Light Rain
5:53 PM 34.0 °F 24.6 °F 32.0 °F 92% 30.19 in 8.0 mi NNE 13.8 mph - 0.00 in   Overcast
6:53 PM 32.0 °F 21.2 °F 30.0 °F 92% 30.25 in 6.0 mi NNE 16.1 mph - 0.00 in Snow Light Snow
7:10 PM 32.0 °F 20.8 °F 28.4 °F 87% 30.20 in 5.0 mi NNE 17.3 mph - 0.00 in Snow Light Snow
7:53 PM 30.0 °F 17.5 °F 28.0 °F 92% 30.33 in 3.0 mi NE 19.6 mph 28.8 mph 0.00 in Snow Light Snow
7:56 PM 30.2 °F 17.4 °F 28.4 °F 93% 30.25 in 2.5 mi NE 20.7 mph 28.8 mph 0.00 in Snow Light Snow
8:03 PM 30.2 °F 16.8 °F 26.6 °F 86% 30.26 in 1.8 mi NNE 23.0 mph 31.1 mph 0.00 in Snow Light Snow
8:23 PM 28.4 °F 16.2 °F 26.6 °F 93% 30.29 in 2.0 mi NNE 17.3 mph 28.8 mph 0.00 in Snow Light Snow
8:26 PM 28.4 °F 16.2 °F 26.6 °F 93% 30.29 in 1.8 mi NNE 17.3 mph 28.8 mph 0.00 in Snow Light Snow
8:32 PM 28.4 °F 15.4 °F 26.6 °F 93% 30.30 in 2.0 mi NNE 19.6 mph 29.9 mph 0.00 in Snow Light Snow
8:41 PM 28.4 °F 14.4 °F 26.6 °F 93% 30.32 in 1.8 mi NNE 23.0 mph 32.2 mph 0.00 in Snow Light Snow
8:53 PM 28.0 °F 14.3 °F 25.0 °F 88% 30.42 in 1.2 mi NNE 21.9 mph 31.1 mph 0.00 in Snow Light Snow
9:04 PM 28.4 °F 14.7 °F 24.8 °F 86% 30.35 in 1.5 mi NNE 21.9 mph 28.8 mph 0.00 in Snow Light Snow
9:53 PM 27.0 °F 13.9 °F 25.0 °F 92% 30.50 in 2.0 mi North 18.4 mph 24.2 mph 0.01 in Snow Light Snow
9:57 PM 26.6 °F 12.0 °F 24.8 °F 93% 30.42 in 2.5 mi NNE 23.0 mph 27.6 mph 0.00 in Snow Light Snow
10:04 PM 26.6 °F 13.1 °F 24.8 °F 93% 30.43 in 3.0 mi NNE 19.6 mph 29.9 mph 0.00 in Snow Light Snow
10:38 PM 26.6 °F 13.8 °F 24.8 °F 93% 30.46 in 2.5 mi NNE 17.3 mph - 0.00 in Snow Light Snow
10:42 PM 26.6 °F 13.4 °F 24.8 °F 93% 30.46 in 3.0 mi NNE 18.4 mph 24.2 mph 0.00 in Snow Light Snow
10:53 PM 27.0 °F 15.2 °F 24.1 °F 89% 30.56 in 2.5 mi NNE 15.0 mph - 0.00 in Snow Light Snow
11:04 PM 26.6 °F 16.8 °F 24.8 °F 93% 30.48 in 1.5 mi NNE 10.4 mph - 0.00 in Snow Light Snow
11:11 PM 26.6 °F 16.2 °F 24.8 °F 93% 30.49 in 2.0 mi NNE 11.5 mph - 0.00 in Snow Light Snow
11:18 PM 26.6 °F 14.3 °F 24.8 °F 93% 30.49 in 2.5 mi NNE 16.1 mph 21.9 mph 0.00 in Snow Light Snow
11:27 PM 26.6 °F 13.4 °F 23.0 °F 86% 30.49 in 3.0 mi NNE 18.4 mph 26.5 mph 0.00 in Snow Light Snow
11:40 PM 24.8 °F 11.1 °F 21.2 °F 86% 30.50 in 8.0 mi NNE 18.4 mph 28.8 mph N/A Snow Light Snow
11:53 PM 24.8 °F 12.4 °F 21.2 °F 86% 30.51 in 10.0 mi NNE 15.0 mph - N/A   Mostly Cloudy